Location: Bathurst
(33.4193°S, 149.5775°E)
Time: 01:12:22
(UTC+11:00)

Envisat - Visible Passes

Search period start: 06 October 2022 00:00
Search period end: 16 October 2022 00:00
Orbit: 764 x 765 km, 98.2° (Epoch: 04 October)

Date Brightness Start Highest point End Pass type
(mag) Time Alt. Az. Time Alt. Az. Time Alt. Az.
06 Oct 5.4 03:31:24 10° ENE 03:34:56 19° ESE 03:38:31 10° SSE visible
06 Oct 3.3 05:08:47 10° N 05:13:35 41° W 05:18:25 10° SSW visible
07 Oct 3.0 04:31:30 10° NNE 04:36:35 81° ESE 04:41:45 10° S visible
08 Oct 4.6 03:55:16 10° NE 03:59:48 34° ESE 04:04:24 10° S visible
08 Oct 4.1 05:34:50 10° NNW 05:38:48 23° W 05:42:48 10° SW visible
09 Oct 5.8 03:20:26 10° E 03:23:13 15° ESE 03:26:01 10° SSE visible
09 Oct 3.0 04:56:42 10° N 05:01:41 55° W 05:06:44 10° SSW visible
10 Oct 3.4 04:19:45 10° NNE 04:24:46 62° ESE 04:29:50 10° S visible
10 Oct 4.7 06:02:11 10° WNW 06:04:06 12° W 06:06:01 10° WSW visible
11 Oct 5.0 03:43:51 10° NE 03:48:02 26° ESE 03:52:14 10° SSE visible
11 Oct 3.8 05:22:26 10° NNW 05:26:51 30° W 05:31:20 10° SW visible
12 Oct 6.0 03:10:01 10° E 03:11:30 11° ESE 03:12:59 10° SE visible
12 Oct 2.9 04:44:44 10° N 04:49:48 73° WNW 04:54:57 10° SSW visible
13 Oct 4.0 04:08:05 10° NE 04:12:56 47° ESE 04:17:51 10° S visible
13 Oct 4.4 05:49:00 10° NW 05:52:07 16° W 05:55:16 10° SW visible
14 Oct 5.4 03:32:36 10° ENE 03:36:16 20° ESE 03:39:58 10° SSE visible
14 Oct 3.4 05:10:12 10° NNW 05:14:56 39° W 05:19:44 10° SSW visible
15 Oct 3.0 04:32:50 10° NNE 04:37:56 86° ESE 04:43:06 10° S visible
